Chico, CA

4:59 PM PDT on August 22, 2017 (GMT -0700)
Chico Municipal

Weather History for KCIC - August, 2014

Change the Weather History Date:

Monday, August 18, 2014

  Actual Average (KOVE) Record (KOVE)
Temperature  
Mean Temperature 78 °F -  
Max Temperature 93 °F 93 °F 108 °F (1966)
Min Temperature 62 °F 59 °F 52 °F (1987)
Cooling Degree Days 12    
Growing Degree Days 28 (Base 50)    
Moisture  
Dew Point 43 °F    
Average Humidity 31    
Maximum Humidity 46    
Minimum Humidity 19    
Precipitation  
Precipitation 0.00 in - - ()
Sea Level Pressure  
Sea Level Pressure 29.79 in    
Wind  
Wind Speed 4 mph (SE)    
Max Wind Speed 12 mph    
Max Gust Speed -    
Visibility 10 miles    
Events      
Averages and records for this station are not official NWS values.
T = Trace of Precipitation, MM = Missing Value Source: NWS Daily Summary

Daily Weather History Graph

Daily Weather History Graph

Search for Another Location

Airport or City:

Trip Planner

Search our weather history database for the weather conditions in past years. The results will help you decide how hot, cold, wet, or windy it might be!

Date:

Astronomy

Aug. 18, 2014 Rise Set
Actual Time 6:22 AM PDT 7:59 PM PDT
Civil Twilight 5:53 AM PDT 8:28 PM PDT
Nautical Twilight 5:19 AM PDT 9:02 PM PDT
Astronomical Twilight 4:42 AM PDT 9:39 PM PDT
Moon 12:33 AM PDT (8/18) 3:07 PM PDT (8/18)
Length of Visible Light 14h 34m
Length of Day
13h 37m
Last Quarter, 37% of the Moon is Illuminated
Aug 18
Last Quarter
Aug 25
New
Sep 2
First Quarter
Sep 8
Full
Sep 15
Last Quarter

Hourly Weather History & Observations

Time (PDT) Temp. Dew Point Humidity Pressure Visibility Wind Dir Wind Speed Gust Speed Precip Events Conditions
12:15 AM 75.2 °F 37.4 °F 25% 29.84 in 10.0 mi SE 3.5 mph - N/A   Clear
12:35 AM 75.2 °F 37.4 °F 25% 29.84 in 10.0 mi ESE 5.8 mph - N/A   Clear
12:55 AM 73.4 °F 37.4 °F 27% 29.84 in 10.0 mi Calm Calm - N/A   Clear
1:15 AM 73.4 °F 37.4 °F 27% 29.84 in 10.0 mi Calm Calm - N/A   Clear
1:35 AM 73.4 °F 37.4 °F 27% 29.84 in 10.0 mi Calm Calm - N/A   Clear
1:55 AM 75.2 °F 35.6 °F 24% 29.83 in 10.0 mi NE 6.9 mph - N/A   Clear
2:15 AM 73.4 °F 35.6 °F 25% 29.83 in 10.0 mi ENE 5.8 mph - N/A   Clear
2:35 AM 68.0 °F 41.0 °F 37% 29.83 in 10.0 mi WNW 4.6 mph - N/A   Clear
2:55 AM 64.4 °F 41.0 °F 42% 29.84 in 10.0 mi NW 5.8 mph - N/A   Clear
3:15 AM 66.2 °F 41.0 °F 40% 29.84 in 10.0 mi Calm Calm - N/A   Clear
3:35 AM 66.2 °F 44.6 °F 46% 29.85 in 10.0 mi Calm Calm - N/A   Clear
3:55 AM 66.2 °F 41.0 °F 40% 29.85 in 10.0 mi East 3.5 mph - N/A   Clear
4:15 AM 66.2 °F 39.2 °F 37% 29.85 in 10.0 mi East 5.8 mph - N/A   Clear
4:35 AM 66.2 °F 37.4 °F 35% 29.85 in 10.0 mi East 3.5 mph - N/A   Clear
4:55 AM 66.2 °F 37.4 °F 35% 29.85 in 10.0 mi ENE 3.5 mph - N/A   Clear
5:15 AM 66.2 °F 37.4 °F 35% 29.84 in 10.0 mi ENE 3.5 mph - N/A   Clear
5:35 AM 66.2 °F 39.2 °F 37% 29.84 in 10.0 mi WSW 3.5 mph - N/A   Clear
5:55 AM 62.6 °F 39.2 °F 42% 29.85 in 10.0 mi Calm Calm - N/A   Clear
6:15 AM 66.2 °F 37.4 °F 35% 29.85 in 10.0 mi Calm Calm - N/A   Clear
6:35 AM 66.2 °F 37.4 °F 35% 29.85 in 10.0 mi NE 3.5 mph - N/A   Clear
6:55 AM 66.2 °F 37.4 °F 35% 29.86 in 40.0 mi ENE 4.6 mph - N/A   Clear
7:47 AM 68.0 °F 41.0 °F 37% 29.87 in 40.0 mi SE 5.8 mph - N/A   Clear
8:47 AM 71.6 °F 48.2 °F 43% 29.86 in 40.0 mi SE 6.9 mph - N/A   Clear
9:47 AM 75.2 °F 48.2 °F 38% 29.85 in 40.0 mi SE 5.8 mph - N/A   Clear
10:54 AM 80.6 °F 48.2 °F 32% 29.84 in - South 6.9 mph - N/A   Clear
11:50 AM 82.4 °F 48.2 °F 30% 29.83 in 40.0 mi South 5.8 mph - N/A   Partly Cloudy
12:55 PM 86.0 °F 48.2 °F 27% 29.81 in 40.0 mi South 5.8 mph - N/A   Partly Cloudy
1:49 PM 89.6 °F 48.2 °F 24% 29.79 in 40.0 mi South 5.8 mph - N/A   Partly Cloudy
2:47 PM 91.4 °F 46.4 °F 21% 29.76 in 40.0 mi SE 5.8 mph - N/A   Partly Cloudy
3:50 PM 93.2 °F 44.6 °F 19% 29.74 in 40.0 mi South 11.5 mph - N/A   Scattered Clouds
4:47 PM 93.2 °F 44.6 °F 19% 29.73 in 40.0 mi South 9.2 mph - N/A   Scattered Clouds
5:54 PM 93.2 °F 46.4 °F 20% 29.71 in 40.0 mi SE 9.2 mph - N/A   Scattered Clouds
6:47 PM 91.4 °F 46.4 °F 21% 29.70 in 40.0 mi SSE 9.2 mph - N/A   Scattered Clouds
6:55 PM 91.4 °F 46.4 °F 21% 29.70 in 10.0 mi South 6.9 mph - N/A   Clear
7:15 PM 89.6 °F 50.0 °F 26% 29.70 in 10.0 mi South 8.1 mph - N/A   Clear
7:35 PM 89.6 °F 48.2 °F 24% 29.70 in 10.0 mi South 5.8 mph - N/A   Clear
7:55 PM 87.8 °F 50.0 °F 27% 29.71 in 10.0 mi SSE 5.8 mph - N/A   Clear
8:15 PM 86.0 °F 50.0 °F 29% 29.71 in 10.0 mi SE 5.8 mph - N/A   Clear
8:35 PM 86.0 °F 50.0 °F 29% 29.72 in 10.0 mi SE 5.8 mph - N/A   Clear
9:15 PM 84.2 °F 48.2 °F 29% 29.73 in 10.0 mi East 4.6 mph - N/A   Clear
9:35 PM 82.4 °F 46.4 °F 28% 29.73 in 10.0 mi Calm Calm - N/A   Clear
9:55 PM 80.6 °F 46.4 °F 30% 29.74 in 10.0 mi NE 4.6 mph - N/A   Clear
10:15 PM 80.6 °F 46.4 °F 30% 29.74 in 10.0 mi NE 3.5 mph - N/A   Clear
10:35 PM 78.8 °F 46.4 °F 32% 29.74 in 10.0 mi ESE 3.5 mph - N/A   Clear
11:15 PM 80.6 °F 46.4 °F 30% 29.74 in 10.0 mi ESE 9.2 mph - N/A   Clear
11:35 PM 80.6 °F 48.2 °F 32% 29.74 in 10.0 mi SE 5.8 mph - N/A   Clear
11:55 PM 78.8 °F 48.2 °F 34% 29.74 in 10.0 mi ESE 4.6 mph - N/A   Clear